Weather History for Buckeye, AZ

Change the Weather History Date:

Saturday, June 22, 2013

  Actual Average (KGYR) Record (KGYR)
Temperature  
Mean Temperature 86 °F -  
Max Temperature 102 °F 102 °F 111 °F (2005)
Min Temperature 71 °F 73 °F 69 °F (2003)
Cooling Degree Days 22    
Growing Degree Days 36 (Base 50)    
Moisture  
Dew Point 28 °F    
Average Humidity 12    
Maximum Humidity 19    
Minimum Humidity 7    
Precipitation  
Precipitation 0.00 in - - ()
Sea Level Pressure  
Sea Level Pressure 29.76 in    
Wind  
Wind Speed 4 mph (SSE)    
Max Wind Speed 10 mph    
Max Gust Speed -    
Visibility 10 miles    
Events      
Averages and records for this station are not official NWS values.
T = Trace of Precipitation, MM = Missing Value Source: NWS Daily Summary

Daily Weather History Graph

Daily Weather History Graph

Search for Another Location

Airport:

Trip Planner

Search our weather history database for the weather conditions in past years. The results will help you decide how hot, cold, wet, or windy it might be!

Date:

Astronomy

Jun. 22, 2013 Rise Set
Actual Time 5:21 AM MST 7:43 PM MST
Civil Twilight 4:52 AM MST 8:12 PM MST
Nautical Twilight 4:17 AM MST 8:48 PM MST
Astronomical Twilight 3:38 AM MST 9:27 PM MST
Moon 7:05 PM MST (6/22) 4:35 AM MST (6/22)
Length of Visible Light 15h 20m
Length of Day
14h 22m
Waxing Gibbous, 99% of the Moon is Illuminated
Jun 22
Waxing Gibbous
Jun 23
Full
Jun 29
Last Quarter
Jul 8
New
Jul 15
First Quarter

Hourly Weather History & Observations

Time (MST) Temp. Dew Point Humidity Pressure Visibility Wind Dir Wind Speed Gust Speed Precip Events Conditions
12:15 AM 80.6 °F 28.4 °F 15% 29.74 in 10.0 mi Calm Calm - N/A   Clear
12:35 AM 80.6 °F 26.6 °F 14% 29.74 in 10.0 mi NNW 4.6 mph - N/A   Clear
12:55 AM 80.6 °F 26.6 °F 14% 29.74 in 10.0 mi NW 4.6 mph - N/A   Clear
1:15 AM 78.8 °F 26.6 °F 15% 29.75 in 10.0 mi North 3.5 mph - N/A   Clear
1:35 AM 77.0 °F 24.8 °F 14% 29.75 in 10.0 mi WNW 4.6 mph - N/A   Clear
1:55 AM 77.0 °F 24.8 °F 14% 29.75 in 9.0 mi NNE 3.5 mph - N/A   Clear
2:15 AM 73.4 °F 23.0 °F 15% 29.75 in 10.0 mi NNW 5.8 mph - N/A   Clear
2:35 AM 75.2 °F 24.8 °F 15% 29.76 in 9.0 mi North 3.5 mph - N/A   Clear
2:55 AM 75.2 °F 24.8 °F 15% 29.76 in 10.0 mi North 3.5 mph - N/A   Clear
3:15 AM 75.2 °F 23.0 °F 14% 29.76 in 10.0 mi NW 4.6 mph - N/A   Clear
3:35 AM 75.2 °F 23.0 °F 14% 29.76 in 10.0 mi NNW 3.5 mph - N/A   Clear
3:55 AM 73.4 °F 23.0 °F 15% 29.76 in 10.0 mi NNE 5.8 mph - N/A   Partly Cloudy
4:15 AM 73.4 °F 24.8 °F 16% 29.77 in 10.0 mi Calm Calm - N/A   Partly Cloudy
4:35 AM 73.4 °F 24.8 °F 16% 29.77 in 10.0 mi Calm Calm - N/A   Partly Cloudy
4:55 AM 71.6 °F 26.6 °F 19% 29.77 in 10.0 mi NE 6.9 mph - N/A   Partly Cloudy
5:15 AM 71.6 °F 21.2 °F 15% 29.78 in 10.0 mi NE 5.8 mph - N/A   Clear
5:35 AM 71.6 °F 23.0 °F 16% 29.78 in 10.0 mi ENE 4.6 mph - N/A   Clear
5:55 AM 73.4 °F 24.8 °F 16% 29.79 in 10.0 mi NE 5.8 mph - N/A   Clear
6:15 AM 73.4 °F 23.0 °F 15% 29.79 in 10.0 mi NE 4.6 mph - N/A   Clear
6:35 AM 77.0 °F 23.0 °F 13% 29.80 in 10.0 mi Calm Calm - N/A   Clear
6:55 AM 80.6 °F 26.6 °F 14% 29.80 in 10.0 mi ENE 3.5 mph - N/A   Clear
7:15 AM 82.4 °F 26.6 °F 13% 29.81 in 10.0 mi Calm Calm - N/A   Clear
7:35 AM 82.4 °F 32.0 °F 16% 29.81 in 10.0 mi Calm Calm - N/A   Clear
7:55 AM 84.2 °F 28.4 °F 13% 29.82 in 10.0 mi ESE 3.5 mph - N/A   Clear
8:15 AM 86.0 °F 33.8 °F 15% 29.82 in 10.0 mi SE 5.8 mph - N/A   Clear
8:35 AM 87.8 °F 33.8 °F 15% 29.83 in 10.0 mi ESE 8.1 mph - N/A   Clear
8:55 AM 87.8 °F 37.4 °F 17% 29.83 in 10.0 mi ESE 10.4 mph - N/A   Clear
9:15 AM 89.6 °F 24.8 °F 10% 29.83 in 10.0 mi East 5.8 mph - N/A   Clear
9:35 AM 89.6 °F 28.4 °F 11% 29.83 in 10.0 mi ESE 8.1 mph - N/A   Clear
9:55 AM 89.6 °F 28.4 °F 11% 29.84 in 10.0 mi ESE 6.9 mph - N/A   Clear
10:15 AM 91.4 °F 26.6 °F 10% 29.84 in 10.0 mi SE 4.6 mph - N/A   Clear
10:35 AM 91.4 °F 28.4 °F 10% 29.84 in 10.0 mi SE 4.6 mph - N/A   Clear
10:55 AM 93.2 °F 28.4 °F 10% 29.84 in 10.0 mi ESE 4.6 mph - N/A   Clear
11:15 AM 93.2 °F 26.6 °F 9% 29.83 in 10.0 mi ESE 4.6 mph - N/A   Clear
11:35 AM 95.0 °F 24.8 °F 8% 29.83 in 10.0 mi SE 5.8 mph - N/A   Clear
11:55 AM 95.0 °F 26.6 °F 9% 29.82 in 10.0 mi SE 5.8 mph - N/A   Clear
12:15 PM 95.0 °F 24.8 °F 8% 29.82 in 10.0 mi South 4.6 mph - N/A   Clear
12:35 PM 95.0 °F 24.8 °F 8% 29.82 in 10.0 mi South 5.8 mph - N/A   Clear
12:55 PM 96.8 °F 24.8 °F 8% 29.81 in 10.0 mi South 4.6 mph - N/A   Clear
1:15 PM 96.8 °F 24.8 °F 8% 29.80 in 10.0 mi SSW 5.8 mph - N/A   Clear
1:35 PM 96.8 °F 26.6 °F 8% 29.79 in 10.0 mi SE 6.9 mph - N/A   Clear
1:55 PM 98.6 °F 26.6 °F 8% 29.78 in 10.0 mi East 4.6 mph - N/A   Clear
2:15 PM 98.6 °F 26.6 °F 8% 29.77 in 10.0 mi SSE 6.9 mph - N/A   Clear
2:35 PM 98.6 °F 26.6 °F 8% 29.76 in 10.0 mi ESE 6.9 mph - N/A   Clear
2:55 PM 98.6 °F 28.4 °F 8% 29.75 in 10.0 mi SE 6.9 mph - N/A   Clear
3:15 PM 100.4 °F 28.4 °F 8% 29.74 in 10.0 mi SSE 6.9 mph - N/A   Clear
3:35 PM 100.4 °F 28.4 °F 8% 29.73 in 10.0 mi South 10.4 mph - N/A   Clear
3:55 PM 100.4 °F 26.6 °F 7% 29.73 in 10.0 mi SSW 6.9 mph - N/A   Clear
4:15 PM 102.2 °F 26.6 °F 7% 29.72 in 10.0 mi South 9.2 mph - N/A   Clear
4:35 PM 102.2 °F 26.6 °F 7% 29.71 in 10.0 mi South 8.1 mph - N/A   Clear
4:55 PM 102.2 °F 26.6 °F 7% 29.70 in 10.0 mi South 3.5 mph - N/A   Clear
5:15 PM 102.2 °F 26.6 °F 7% 29.69 in 10.0 mi Calm Calm - N/A   Clear
5:35 PM 102.2 °F 30.2 °F 8% 29.69 in 10.0 mi SE 5.8 mph - N/A   Clear
5:55 PM 102.2 °F 26.6 °F 7% 29.69 in 10.0 mi SSW 5.8 mph - N/A   Clear
6:15 PM 100.4 °F 30.2 °F 9% 29.69 in 10.0 mi SW 6.9 mph - N/A   Clear
6:35 PM 100.4 °F 30.2 °F 9% 29.69 in 10.0 mi SSW 6.9 mph - N/A   Clear
6:55 PM 98.6 °F 32.0 °F 10% 29.69 in 10.0 mi SSW 6.9 mph - N/A   Clear
7:15 PM 95.0 °F 35.6 °F 12% 29.69 in 10.0 mi SSW 8.1 mph - N/A   Clear
7:35 PM 95.0 °F 33.8 °F 12% 29.69 in 10.0 mi SSW 4.6 mph - N/A   Clear
7:55 PM 91.4 °F 35.6 °F 14% 29.69 in 9.0 mi SW 5.8 mph - N/A   Clear
8:15 PM 91.4 °F 33.8 °F 13% 29.70 in 10.0 mi SSW 6.9 mph - N/A   Clear
8:35 PM 91.4 °F 33.8 °F 13% 29.70 in 10.0 mi SSW 8.1 mph - N/A   Clear
8:55 PM 89.6 °F 32.0 °F 13% 29.71 in 10.0 mi SW 9.2 mph - N/A   Clear
9:15 PM 86.0 °F 33.8 °F 15% 29.71 in 10.0 mi SW 5.8 mph - N/A   Clear
9:35 PM 86.0 °F 32.0 °F 14% 29.72 in 10.0 mi SW 6.9 mph - N/A   Clear
9:55 PM 86.0 °F 32.0 °F 14% 29.73 in 10.0 mi SW 4.6 mph - N/A   Clear
10:15 PM 86.0 °F 28.4 °F 12% 29.73 in 10.0 mi WSW 4.6 mph - N/A   Clear
10:35 PM 86.0 °F 28.4 °F 12% 29.72 in 10.0 mi SW 5.8 mph - N/A   Clear
10:55 PM 84.2 °F 28.4 °F 13% 29.72 in 10.0 mi SW 6.9 mph - N/A   Clear
11:15 PM 84.2 °F 26.6 °F 12% 29.72 in 10.0 mi West 6.9 mph - N/A   Clear
11:35 PM 82.4 °F 26.6 °F 13% 29.72 in 10.0 mi West 4.6 mph - N/A   Clear
11:55 PM 80.6 °F 24.8 °F 13% 29.72 in 10.0 mi NNW 8.1 mph - N/A   Clear